OSCAR 7 1 7530U 74089B 26037.99182642 -.00000047 00000-0 -27752-5 0 9993 2 7530 101.9972 49.8523 0012258 20.9760 36.4298 12.53695622344205 OSCAR 11 (UOSAT 2) 1 14781U 84021B 26038.12700472 .00002634 00000-0 27612-3 0 9994 2 14781 97.7900 5.3147 0006047 250.9785 109.0778 14.90391525237753 OSCAR 19 (LUSAT) 1 20442U 90005G 26037.99163419 .00000209 00000-0 91526-4 0 9994 2 20442 98.8950 56.1487 0010841 224.2118 135.8201 14.34074785883730 EYESAT A 1 22825U 93061C 26038.14957770 .00000173 00000-0 82887-4 0 9995 2 22825 98.7048 105.5263 0009357 119.1133 241.0987 14.30902647688405 ITAMSAT 1 22826U 93061D 26038.16757285 .00000201 00000-0 92806-4 0 9991 2 22826 98.6996 105.4489 0010007 104.6222 255.6071 14.31325887688713 RADIO ROSTO 1 23439U 94085A 26038.18648438 .00000010 00000-0 14863-2 0 9993 2 23439 64.8164 153.4642 0151561 27.8356 333.0576 11.27583611281246 JAS 2 1 24278U 96046B 26038.18652100 -.00000016 00000-0 17178-4 0 9996 2 24278 98.5421 264.7265 0350833 73.7757 290.1680 13.53266643455586 TECHSAT 1B 1 25397U 98043D 26037.90281677 .00000136 00000-0 79038-4 0 9999 2 25397 98.9987 27.4306 0000773 178.6118 181.5062 14.24397158432780 ISS (ZARYA) 1 25544U 98067A 26037.85745963 .00012189 00000-0 23308-3 0 9995 2 25544 51.6318 224.7731 0011112 72.2083 288.0117 15.48447561551553 PCSAT 1 26931U 01043C 26037.96494660 .00000247 00000-0 12331-3 0 9997 2 26931 67.0487 221.0723 0007041 266.3534 93.6763 14.31894232271802 SAUDISAT 1C 1 27607U 02058C 26037.72656845 .00002556 00000-0 31953-3 0 9990 2 27607 64.5528 172.5215 0074442 286.2813 73.0114 14.82657531245119 CUTE-1 1 27844U 03031E 26038.00414118 .00000481 00000-0 22742-3 0 9993 2 27844 98.6775 48.1865 0009237 197.5390 162.5471 14.24239877173145 CUBESAT XI 4 1 27848U 03031J 26037.99814235 .00000403 00000-0 19627-3 0 9990 2 27848 98.6804 47.9978 0008794 216.6284 143.4294 14.23538936172851 MOZHAYETS 4 1 27939U 03042A 26038.23375605 .00001922 00000-0 30614-3 0 9990 2 27939 98.3402 218.9540 0010737 326.1405 142.3026 14.73165151196419 CUBESAT XI 5 1 28895U 05043F 26037.99604190 .00002872 00000-0 46336-3 0 9994 2 28895 98.2780 191.0538 0013234 257.6507 102.3219 14.72179849 82594 CUTE-1.7+APD 2 1 32785U 08021C 26038.12680383 .00007870 00000-0 51601-3 0 9994 2 32785 97.8168 17.0740 0011265 107.1553 253.0908 15.07919215965582 SEEDS 1 32791U 08021J 26037.95330128 .00025492 00000-0 94170-3 0 9998 2 32791 97.7494 30.1478 0005381 68.0773 292.1037 15.27712917967373 YUBELEINY 1 32953U 08025A 26038.12600909 .00000011 00000-0 64723-5 0 9992 2 32953 82.4987 76.3468 0018539 232.9871 126.9512 12.43174879803535 KKS-1 (KISEKI) 1 33499U 09002H 26038.09772263 .00002650 00000-0 33513-3 0 9995 2 33499 98.1186 318.5313 0008011 3.1709 356.9553 14.82705477916914 SWISSCUBE 1 35932U 09051B 26038.16303156 .00001836 00000-0 37463-3 0 9995 2 35932 98.4127 303.7606 0005552 257.1862 102.8718 14.62170900870156 BEESAT 1 35933U 09051C 26038.17522441 .00001542 00000-0 32106-3 0 9990 2 35933 98.4057 303.6742 0004052 274.8438 85.2300 14.61458243870191 ITUPSAT 1 1 35935U 09051E 26038.12162968 .00001421 00000-0 30485-3 0 9995 2 35935 98.4146 302.9446 0006315 286.5358 73.5147 14.60199012869754 XIWANG-1 (HOPE-1) 1 36122U 09072B 26038.13324160 .00000210 00000-0 66523-3 0 9999 2 36122 100.3870 354.1431 0007490 166.2654 193.8664 13.16436207775892 TISAT 1 1 36799U 10035E 26037.75834924 .00027269 00000-0 10567-2 0 9990 2 36799 98.0614 333.3883 0003207 37.6033 322.5427 15.26123768847778 JUGNU 1 37839U 11058B 26037.24039310 .00000549 00000-0 14726-3 0 9996 2 37839 19.9623 23.9494 0018781 70.6819 52.3180 14.13726855740472 SRMSAT 1 37841U 11058D 26037.29582517 .00000512 00000-0 13390-3 0 9992 2 37841 19.9712 131.7097 0011564 203.5607 189.1597 14.11535751739307 HORYU 2 1 38340U 12025D 26037.87840110 .00005780 00000-0 60410-3 0 9999 2 38340 98.1971 165.7331 0007525 245.1706 114.8728 14.90064136729312 STRAND 1 1 39090U 13009E 26038.06825293 .00000531 00000-0 19319-3 0 9993 2 39090 98.3856 221.5259 0007591 258.6180 101.4154 14.37066958678376 CUBEBUG 1 1 39153U 13018D 26038.01451748 .00006082 00000-0 54321-3 0 9997 2 39153 98.1463 192.3768 0011509 216.9270 143.1158 14.96270012691598 ZACUBE 1 39417U 13066B 26037.84709542 .00009144 00000-0 72817-3 0 9993 2 39417 97.8176 359.5257 0040881 326.5593 33.3049 14.99939853661188 TRITON 1 1 39427U 13066M 26038.20206060 .00004112 00000-0 50217-3 0 9992 2 39427 97.8309 310.9962 0089853 298.5394 60.6795 14.80997644654848 GOMX 1 1 39430U 13066Q 26038.17384020 .00002639 00000-0 40305-3 0 9994 2 39430 97.6574 246.7799 0130495 134.5784 226.6163 14.68964663650827 HUMSAT D 1 39433U 13066T 26037.95448148 .00330584 00000-0 19878-2 0 9997 2 39433 97.4953 48.1517 0001907 66.0760 294.0705 15.76805852666584 CUBEBUG 2 1 39440U 13066AA 26037.79615628 .00006647 00000-0 62887-3 0 9995 2 39440 97.8775 346.4411 0060814 99.2482 261.5622 14.92581267657536 FUNCUBE 1 1 39444U 13066AE 26038.17612027 .00013058 00000-0 85589-3 0 9990 2 39444 97.8151 7.2229 0035839 287.0470 72.6832 15.07302567660067 UWE-3 1 39446U 13066AG 26036.82439138 .00010655 00000-0 93494-3 0 9996 2 39446 97.8559 352.2552 0051670 39.3948 321.1012 14.95763546657930 UNISAT 6 1 40012U 14033C 26037.99926130 .00005259 00000-0 57622-3 0 9991 2 40012 97.7674 193.2148 0046528 136.6885 223.8004 14.87381634626805 DUCHIFAT 1 1 40021U 14033M 26038.18767144 .00058869 00000-0 11894-2 0 9996 2 40021 98.0698 81.1054 0006209 171.4869 188.6485 15.46271792635559 QB50P1 1 40025U 14033R 26037.95519644 .00014026 00000-0 73643-3 0 9992 2 40025 98.1000 40.1836 0007822 321.5100 38.5572 15.15825625633286 OBJECT G 1 40905U 15049G 26038.16334191 .00036989 00000-0 51165-3 0 9990 2 40905 97.4773 75.2299 0005462 353.6467 6.4718 15.57027831576151 LILACSAT 2 1 40908U 15049K 26038.18648188 .00022249 00000-0 44344-3 0 9994 2 40908 97.4855 70.3723 0007870 18.9791 341.1750 15.46868548575621 LQSAT 1 40958U 15057A 26038.24093756 .00001833 00000-0 26900-3 0 9994 2 40958 97.6639 38.1052 0016676 339.5620 20.4921 14.76580530556138 CHUBUSAT 2 1 41338U 16012B 26038.20319191 .00008867 00000-0 40384-3 0 9995 2 41338 30.9984 93.4527 0009347 190.8799 169.1640 15.19288322548623 CHUBUSAT 3 1 41339U 16012C 26038.20642043 .00008372 00000-0 40435-3 0 9999 2 41339 31.0048 100.0814 0009726 182.3186 177.7410 15.17245797548434 PRATHAM 1 41783U 16059A 26037.97588044 .00001299 00000-0 23874-3 0 9995 2 41783 97.8299 40.5949 0029891 273.7344 86.0443 14.66978682500422 ALSAT 1N 1 41789U 16059G 26038.10110050 .00001629 00000-0 28432-3 0 9997 2 41789 97.8024 47.2605 0024657 242.9550 116.9140 14.69043827500906